GFSMA_700_spd_000.txt.gz
Wind_Speed
17 21 24 25 26 27 26 26 26 26 27 28 29 30 32 34 34 34 34 34 33 32 31 29 25 24 29 30 29 37 37 33 32 31 30 28 27 26 25 26 26 25 23
19 22 23 26 27 28 27 27 26 26 26 25 26 28 30 33 35 36 36 38 37 37 35 34 32 30 28 29 33 34 34 35 35 35 32 34 30 30 29 29 29 28 27
22 22 21 23 26 27 28 28 29 30 30 31 31 31 32 33 35 36 38 39 41 39 40 38 36 35 33 31 31 34 36 36 38 38 38 39 35 31 30 32 34 32 31
25 25 25 25 26 27 28 28 28 30 31 31 32 33 33 34 36 38 40 41 41 42 41 40 39 36 35 36 36 35 34 36 38 42 42 41 46 44 41 33 33 34 35
27 29 28 26 30 31 31 32 31 34 35 37 37 36 36 36 37 36 37 39 41 41 41 40 38 38 37 36 37 39 39 36 41 42 43 48 43 46 51 50 45 37 36
32 32 31 31 31 32 32 34 36 37 41 40 42 43 42 41 40 39 38 39 41 40 38 37 40 40 37 36 35 37 40 42 41 45 42 48 46 53 46 50 45 47 46
36 36 34 36 35 39 39 39 41 44 42 43 44 46 47 47 46 44 44 42 41 43 43 41 39 37 40 37 37 36 37 39 42 46 45 41 47 51 56 55 47 40 48
40 40 38 39 39 39 40 39 40 44 46 46 47 47 50 42 41 50 47 47 44 44 44 44 41 38 36 37 39 36 36 36 38 41 46 48 47 48 48 51 53 53 54
39 40 39 38 38 40 43 45 47 48 51 51 50 52 49 47 37 36 45 44 43 45 43 47 43 40 38 36 36 36 34 35 35 38 40 44 47 48 51 51 51 54 54
40 34 37 40 43 45 47 49 49 50 52 55 49 47 52 54 56 48 45 49 52 52 48 47 48 42 42 39 39 36 36 35 33 35 38 39 42 44 47 51 53 53 54
36 38 40 42 46 48 49 51 51 52 54 56 57 55 54 52 55 59 59 46 46 49 57 52 46 48 44 42 41 42 39 39 37 33 33 35 39 42 43 44 50 53 54
42 45 48 53 52 53 54 53 54 54 54 54 52 54 54 53 51 48 56 58 50 36 40 54 56 50 52 48 46 44 43 41 39 38 37 36 36 39 42 43 44 48 52
47 51 55 54 53 53 53 53 50 45 44 43 40 40 40 40 45 46 50 55 58 54 63 58 58 56 55 52 53 52 47 45 45 41 40 40 40 39 40 43 44 44 45
52 56 56 55 52 50 46 38 38 39 40 40 37 36 36 35 37 42 35 33 38 42 44 51 50 55 53 49 46 48 45 45 45 45 44 45 45 44 42 42 44 45 44
57 56 55 49 46 41 38 33 32 30 37 42 38 36 37 37 38 42 38 36 36 33 32 30 33 34 44 44 43 45 45 47 50 48 47 48 49 48 47 45 44 45 46
56 50 44 38 36 33 33 31 32 36 31 33 33 33 31 33 34 34 33 37 36 34 38 39 37 36 40 44 45 48 48 50 51 50 48 48 47 49 49 49 48 45 45
44 38 35 32 33 33 36 37 36 36 36 34 32 32 32 32 34 33 33 32 30 29 33 32 31 31 34 40 42 44 46 47 48 52 49 49 48 47 48 48 48 48 46
37 34 34 33 33 37 40 39 38 35 36 34 34 34 34 33 34 34 34 34 34 35 35 37 33 32 36 36 39 41 41 43 44 44 51 51 49 49 48 49 49 48 47
34 33 32 34 35 35 36 36 36 36 37 37 36 35 35 34 34 35 35 36 37 37 38 39 40 38 39 38 39 41 40 40 41 42 46 47 45 44 48 50 50 50 50
31 31 33 36 39 39 39 39 37 38 38 38 37 35 34 33 34 34 35 36 37 38 39 40 41 41 41 40 41 42 42 41 41 41 44 45 45 46 48 50 51 52 52
35 35 35 35 34 33 35 34 34 37 37 36 35 34 33 34 33 34 36 37 37 38 38 39 38 39 39 37 37 38 41 40 40 36 40 42 43 43 46 48 49 53 53
32 32 31 32 34 35 39 38 37 36 36 36 36 35 35 36 35 36 36 37 37 38 39 39 40 42 41 41 40 40 40 41 42 39 41 43 44 44 43 43 45 49 51
30 32 35 37 37 36 38 36 36 36 35 34 33 33 33 33 34 35 34 34 33 34 36 37 39 38 38 37 36 37 38 38 38 34 34 38 39 42 43 46 48 47 49
36 36 36 35 34 34 36 35 35 35 35 34 33 32 33 32 31 32 32 31 31 32 32 33 34 33 34 33 34 34 34 36 36 35 34 36 34 37 39 42 45 47 45
36 34 34 35 36 37 40 39 39 37 36 33 32 31 32 31 29 30 30 30 31 29 29 30 31 31 29 29 29 31 33 34 34 34 33 34 34 35 35 38 40 43 45
35 34 35 36 38 37 38 39 38 36 34 31 29 28 28 27 26 26 27 29 29 27 29 31 31 28 26 25 24 28 26 29 30 30 29 32 32 32 33 33 34 36 40

GFSMA_700_spd_006.txt.gz
Wind_Speed
25 26 25 25 24 22 21 22 25 27 28 28 29 27 26 26 25 24 29 31 30 28 28 27 27 28 28 29 28 26 24 25 25 34 29 33 28 25 25 29 26 26 25
23 22 22 22 20 19 22 26 28 28 28 28 27 29 28 27 29 32 30 33 32 31 31 32 31 30 29 27 28 28 27 25 28 30 34 29 33 30 27 25 27 28 28
23 24 24 25 25 25 28 31 31 31 31 32 34 36 38 37 33 30 30 31 35 35 34 32 33 34 32 31 28 28 28 29 29 31 37 39 34 40 37 33 29 29 29
30 29 28 28 28 27 29 32 32 33 33 33 32 33 36 38 39 42 43 37 38 38 37 38 37 35 34 33 32 30 29 29 32 32 34 38 35 34 43 42 34 33 29
33 33 33 34 34 34 36 37 35 37 36 35 35 34 34 36 38 41 44 43 44 48 50 44 42 40 38 35 34 32 30 30 31 34 36 36 38 35 37 47 48 40 36
36 37 38 40 40 41 43 40 39 39 36 36 37 37 36 35 35 38 41 41 45 44 45 50 47 46 43 38 37 36 33 31 31 34 37 39 39 38 40 44 43 47 39
42 37 39 43 39 45 45 44 43 40 40 38 39 41 41 40 40 38 40 41 43 44 42 40 47 51 47 47 40 36 38 35 32 32 35 39 42 41 39 40 45 47 34
45 49 48 46 46 40 43 42 41 42 43 42 43 46 51 49 45 44 40 40 39 44 48 53 51 48 49 48 46 35 32 34 34 32 33 36 39 41 42 41 41 43 43
53 38 41 42 43 41 39 42 43 44 48 47 48 51 52 54 55 52 50 47 43 40 42 47 48 49 47 50 49 46 36 29 31 34 34 33 36 39 39 44 45 45 46
40 40 39 40 41 44 44 45 47 50 51 53 55 55 53 55 58 61 55 54 51 46 49 45 40 43 47 48 47 48 45 40 34 34 36 36 34 35 38 41 45 48 48
44 42 44 45 48 50 51 50 52 54 56 57 56 57 54 49 46 48 57 58 56 53 52 56 45 45 45 49 48 55 47 43 39 34 35 36 36 35 36 40 41 44 48
48 48 50 52 53 53 54 56 57 58 56 53 47 43 43 46 47 46 47 51 53 52 52 56 56 54 69 58 38 40 42 44 41 38 35 33 35 36 37 40 42 43 44
51 50 52 51 54 57 57 57 53 47 46 39 38 40 42 40 39 40 42 41 45 47 44 44 57 54 63 55 41 30 32 38 44 41 38 35 34 37 38 39 43 44 44
50 50 53 54 56 56 53 52 45 38 36 36 35 35 35 34 37 34 39 32 34 36 38 34 42 47 42 36 36 39 35 34 40 40 39 42 40 38 40 37 40 44 43
48 52 54 53 53 52 48 44 40 38 40 36 37 37 37 36 35 29 30 29 27 30 27 30 38 39 50 35 31 30 32 34 30 36 36 40 41 37 39 38 40 41 40
50 52 53 53 48 46 42 39 37 36 37 34 34 34 30 28 25 24 25 28 26 26 31 27 24 25 29 25 24 27 28 27 33 34 31 29 32 35 36 39 41 43 42
52 50 47 43 39 37 33 32 32 30 31 31 28 28 29 29 29 28 28 30 29 27 33 33 29 24 23 18 17 21 25 27 29 34 34 37 35 36 36 37 39 41 45
49 47 46 44 39 36 33 31 33 35 38 39 35 26 29 32 35 36 35 32 31 36 33 33 32 32 29 29 27 23 22 23 26 28 35 33 35 37 39 41 41 40 41
46 43 41 37 34 33 33 32 32 32 34 36 34 36 37 33 36 34 35 40 42 37 34 35 36 34 33 29 33 34 31 30 30 32 30 31 37 38 38 34 38 41 43
44 41 35 32 33 32 33 34 34 35 36 36 36 35 34 35 33 33 34 33 33 35 35 37 38 36 32 30 29 30 34 36 37 38 37 38 38 38 39 39 37 39 41
41 38 35 33 32 32 32 35 37 37 37 39 39 38 36 34 34 39 39 37 43 39 38 39 38 37 35 31 27 24 25 25 29 30 35 38 40 40 41 39 38 36 39
38 37 36 36 34 35 37 42 42 41 42 42 43 40 38 36 34 32 35 38 40 40 35 34 35 36 35 34 34 34 36 37 37 35 39 37 36 37 38 39 37 34 35
37 39 36 36 39 40 41 45 45 44 45 43 41 39 36 34 34 33 35 38 37 36 32 28 30 31 33 32 33 35 36 40 43 43 42 44 41 38 39 41 43 44 41
38 36 37 39 43 40 42 44 46 42 39 38 36 33 31 29 29 31 33 34 33 32 32 32 32 28 31 30 33 34 37 40 41 40 38 39 33 33 33 34 35 37 41
36 38 39 40 39 41 43 43 41 38 37 36 33 30 27 26 25 26 29 30 30 29 30 31 30 29 29 29 30 32 33 34 35 33 31 33 30 31 31 31 32 34 35
37 39 41 33 38 41 40 40 39 38 37 34 29 24 21 22 21 20 22 23 25 25 26 26 25 26 26 26 26 28 30 31 30 30 24 28 28 26 28 27 27 27 29

GFSMA_700_spd_009.txt.gz
Wind_Speed
25 25 23 24 23 22 22 21 22 23 24 23 24 25 24 22 23 24 25 25 26 22 20 17 17 18 19 21 24 25 26 25 25 25 27 33 40 39 36 31 29 26 26
22 22 22 22 22 23 23 24 25 26 26 28 28 29 28 29 28 27 27 26 24 26 25 23 22 20 20 20 21 23 25 27 28 26 27 31 36 31 38 38 34 33 34
26 28 27 24 25 27 29 28 29 31 33 33 34 31 32 30 29 31 32 33 30 26 26 26 26 27 26 24 23 22 24 25 28 30 28 28 33 37 37 37 34 33 41
34 34 33 31 33 35 34 34 37 37 36 35 36 34 32 33 33 32 31 34 37 36 34 32 29 27 27 28 26 25 24 24 26 30 32 31 33 38 37 38 35 31 34
35 36 35 40 41 41 41 42 39 38 38 36 38 37 34 34 34 34 35 34 34 37 39 35 34 34 31 29 28 26 26 25 26 28 33 34 33 33 34 38 39 41 39
40 39 45 48 48 49 44 38 38 37 37 39 41 40 40 39 38 36 36 38 38 33 35 36 36 33 34 36 34 31 28 27 27 28 31 35 36 35 34 37 39 50 46
34 48 41 44 47 40 36 37 39 40 40 40 43 45 44 43 43 42 39 39 40 38 37 37 39 43 45 42 42 40 34 29 27 28 30 32 37 37 38 36 39 45 47
50 50 43 43 42 43 39 37 39 42 42 42 46 49 52 49 47 46 46 44 44 45 45 44 43 41 44 50 48 42 40 39 28 27 28 30 33 37 37 40 41 41 41
44 46 43 42 45 45 44 42 43 44 47 46 47 49 53 55 58 54 51 50 50 51 51 49 48 49 49 48 39 42 44 44 34 29 30 29 29 31 34 36 41 43 40
51 49 48 49 49 47 47 47 48 47 47 49 50 50 51 52 56 62 57 53 52 53 54 55 53 51 51 49 51 51 43 41 44 34 34 34 30 28 29 31 36 40 44
49 48 47 47 47 47 47 47 48 51 51 51 50 49 47 47 47 48 56 55 50 48 50 52 56 54 54 49 57 51 45 50 51 43 40 40 38 34 31 31 32 36 40
48 49 51 45 47 46 48 50 49 50 49 47 45 41 45 43 44 41 42 44 46 44 39 40 45 53 57 55 48 45 56 51 57 52 48 43 40 39 36 35 35 35 36
51 47 43 44 45 46 47 49 49 47 48 47 43 39 39 39 37 35 37 36 37 32 32 32 33 36 45 54 57 59 44 48 52 55 54 44 42 41 38 36 37 37 37
47 46 46 47 48 49 51 49 45 43 44 40 39 42 40 40 36 37 35 35 35 32 24 24 24 23 34 43 43 46 62 50 51 40 46 47 42 40 40 37 37 38 39
47 46 47 48 49 48 46 43 41 39 39 41 42 39 37 33 31 32 30 27 25 30 31 27 23 21 22 26 27 39 31 33 42 49 49 43 40 42 40 39 38 39 40
48 46 45 44 43 42 40 36 34 34 35 33 32 33 33 30 28 28 24 25 28 31 38 32 28 25 22 21 18 25 24 27 26 32 36 34 35 35 37 37 39 43 46
46 45 46 48 46 43 39 35 34 33 32 33 32 31 32 33 33 33 35 34 33 28 33 39 35 33 30 24 21 19 26 27 26 26 28 28 29 31 39 43 40 43 46
41 42 49 48 43 39 37 36 34 33 33 32 32 32 32 33 35 36 37 39 39 40 40 38 38 38 39 31 28 25 24 25 16 17 21 31 37 39 37 36 38 42 45
39 49 50 43 46 42 36 34 34 34 34 35 36 38 39 39 38 37 38 36 38 36 36 40 47 46 36 31 28 28 33 32 26 21 22 27 32 34 35 34 36 39 43
44 45 43 43 46 41 35 33 35 36 37 40 41 41 41 40 40 39 37 38 37 39 40 37 35 37 39 36 34 33 30 34 38 36 33 34 35 37 38 39 38 37 40
40 40 38 41 48 41 35 37 40 42 44 45 46 45 44 42 40 37 37 37 37 38 40 43 43 40 37 34 31 31 31 31 32 38 40 40 41 42 40 41 41 39 36
36 38 37 46 45 40 40 42 46 46 47 47 45 43 40 37 34 33 34 36 38 39 39 39 38 34 30 29 30 32 32 31 30 31 34 35 40 43 43 44 42 40 38
35 33 43 42 40 41 45 46 47 48 44 43 41 40 37 33 32 31 30 31 33 36 38 39 37 32 26 24 28 30 32 35 36 33 35 36 34 34 33 35 37 39 39
32 38 39 38 40 40 40 43 44 43 42 38 37 34 32 30 28 28 28 29 28 31 34 36 36 31 30 25 28 29 31 34 36 35 35 40 36 39 38 38 40 42 44
37 37 38 37 34 35 40 43 42 42 39 36 31 28 27 25 23 22 24 25 24 23 26 28 29 28 27 25 26 28 28 30 30 28 30 36 32 35 35 37 38 39 41
36 38 36 32 32 37 41 42 41 43 38 32 28 27 24 22 21 20 19 20 21 20 22 22 22 24 25 23 23 24 24 25 26 26 22 31 29 30 32 30 31 33 35

GFSMA_700_spd_012.txt.gz
Wind_Speed
23 28 27 25 29 31 29 27 27 26 26 24 23 25 26 25 23 23 23 21 21 21 17 15 16 18 19 21 23 24 25 25 26 26 25 25 27 30 31 30 34 30 30
25 33 32 31 32 31 31 31 33 33 32 32 33 32 31 28 28 28 28 27 27 24 23 19 17 18 19 21 23 25 27 27 27 29 28 27 28 30 35 33 37 33 30
31 36 35 37 35 33 36 36 39 40 39 38 36 35 34 32 30 30 30 31 31 32 31 27 24 22 21 20 22 24 26 29 30 29 30 31 29 28 32 33 42 41 37
35 35 34 36 39 41 47 45 43 43 42 42 42 40 37 33 33 33 32 33 34 35 34 34 32 28 24 22 21 21 23 27 29 30 31 30 32 31 33 36 41 39 36
33 34 33 38 42 47 40 38 37 39 39 39 39 38 36 35 34 34 36 37 38 38 37 36 36 36 33 27 25 23 21 22 27 31 32 32 32 34 34 37 36 41 42
31 30 39 43 47 41 41 40 40 39 42 44 44 42 40 38 38 38 39 41 42 42 41 40 40 37 37 37 33 29 26 26 24 27 32 34 34 35 37 37 37 42 48
36 39 41 42 42 47 48 46 45 45 45 44 46 46 45 42 41 41 42 44 44 46 47 46 43 42 39 38 38 37 34 38 30 28 29 35 35 34 35 38 38 40 45
42 42 40 46 49 47 45 45 46 47 47 47 48 49 51 48 44 44 44 46 47 48 51 52 51 49 46 43 41 42 41 36 36 39 31 31 37 35 35 37 40 41 45
42 46 49 52 49 48 48 47 47 46 48 47 47 48 51 54 55 51 49 50 51 52 52 54 55 55 55 51 47 46 45 42 36 39 40 32 35 36 37 37 40 43 44
48 50 50 47 46 47 49 49 47 47 46 47 47 47 47 49 53 59 57 55 51 51 52 54 57 57 56 54 52 50 50 49 43 43 42 42 36 36 38 37 37 40 43
50 53 46 45 48 50 45 46 47 47 47 47 47 47 48 49 51 51 57 56 53 46 43 46 50 53 55 55 54 53 51 52 47 46 49 48 43 41 41 39 37 36 41
47 55 47 46 43 46 46 45 47 49 50 50 48 46 47 45 48 45 46 48 46 44 36 32 34 37 41 46 49 52 52 52 49 49 47 47 48 47 46 42 41 39 38
49 57 44 47 49 50 49 49 50 49 47 46 43 44 44 35 35 40 44 42 45 41 36 32 33 34 34 34 38 42 43 47 50 34 43 56 58 53 49 48 45 44 41
55 45 47 53 52 48 46 47 50 52 46 41 40 40 41 41 43 44 39 33 33 36 33 29 28 27 27 27 28 34 38 39 41 50 41 60 56 60 56 54 51 49 47
39 47 48 46 41 37 42 44 44 42 41 38 36 35 33 31 28 31 33 34 32 26 32 30 30 26 25 28 27 25 27 35 35 37 56 53 46 55 66 62 56 51 49
50 50 50 46 40 43 45 45 48 45 36 31 28 28 29 30 31 33 32 32 33 39 32 32 34 35 32 28 28 26 25 24 33 30 39 48 58 44 50 57 60 55 50
48 51 49 48 38 40 40 40 40 36 30 27 29 30 31 32 31 31 32 34 39 39 41 41 36 32 36 33 30 25 27 26 25 27 30 38 43 57 55 50 56 52 50
48 45 39 31 33 36 37 41 34 29 31 32 33 34 35 37 39 39 40 39 39 41 45 47 45 44 37 33 36 35 28 31 30 17 24 29 33 33 44 32 43 45 44
45 45 31 32 35 37 37 34 30 33 35 35 38 41 43 44 44 43 42 44 43 41 41 42 45 43 39 34 42 43 37 32 35 34 18 19 29 28 28 30 30 32 40
46 37 27 34 36 35 38 35 35 38 38 39 42 45 46 45 44 42 41 42 42 42 41 41 41 42 40 34 32 31 35 32 32 35 33 24 23 25 27 29 33 36 39
40 26 30 35 35 37 36 39 40 39 40 44 44 44 44 44 43 41 40 37 37 37 38 38 39 40 41 38 37 34 35 36 35 36 36 37 32 32 34 34 36 37 37
42 24 30 33 34 36 38 40 39 40 44 44 43 44 43 42 40 37 34 32 34 35 34 36 37 38 38 33 30 31 32 34 33 33 36 36 40 40 38 38 40 41 41
23 26 29 30 36 38 40 40 40 43 43 43 44 42 39 35 32 31 28 27 28 30 33 34 37 37 35 31 30 27 28 32 34 33 36 37 39 41 44 47 45 44 45
31 27 28 34 38 38 37 37 39 42 41 43 38 34 33 32 30 28 27 24 23 24 27 29 32 34 32 30 28 27 28 30 31 30 33 36 36 39 38 39 39 40 41
28 29 31 37 37 35 34 36 40 41 42 37 31 30 32 30 26 23 23 21 20 18 20 22 25 27 26 25 24 25 26 29 29 26 30 35 34 39 42 43 44 44 43
27 30 34 34 34 32 34 36 41 42 39 32 28 29 28 25 22 20 21 21 18 17 18 19 21 21 22 22 22 22 22 25 25 24 24 32 28 32 34 34 36 38 41

GFSMA_700_spd_015.txt.gz
Wind_Speed
24 23 29 30 28 28 28 28 30 32 33 32 33 32 31 33 35 34 31 28 26 25 23 22 21 22 25 27 28 27 27 29 29 29 27 27 26 27 28 27 28 31 29
24 28 31 33 31 30 32 34 38 39 38 38 36 36 36 36 37 38 37 36 34 31 28 27 24 24 24 27 30 31 32 31 30 32 31 32 30 29 31 32 31 30 33
25 31 32 32 33 34 39 41 43 39 38 40 39 36 35 36 38 40 40 40 39 37 34 33 32 30 29 28 28 31 33 34 34 33 33 34 34 33 31 33 34 34 34
32 33 34 33 34 36 44 42 43 40 40 42 40 38 37 38 38 39 39 40 40 40 38 38 37 37 34 33 34 31 32 35 37 37 36 35 34 35 35 33 29 37 36
31 30 34 35 36 43 46 47 46 49 48 47 45 43 41 41 41 42 43 42 43 44 44 42 42 41 40 39 35 34 36 34 37 39 39 37 35 35 35 35 34 35 36
37 34 38 40 38 47 49 51 52 52 51 52 51 49 46 43 44 45 45 47 47 47 48 48 47 45 44 43 42 39 36 38 37 37 39 41 39 37 37 37 39 38 38
35 38 39 45 47 49 50 54 55 54 51 51 52 53 50 47 45 46 48 49 48 49 50 50 51 51 49 48 46 45 44 39 40 40 37 39 43 41 39 39 40 42 41
38 42 43 46 49 54 53 54 51 51 50 52 55 56 57 55 51 49 47 48 49 49 50 52 53 54 54 52 51 49 48 48 45 42 42 40 41 44 42 41 41 42 43
41 43 48 52 54 55 55 57 53 50 52 50 48 51 54 55 56 52 49 51 52 51 51 52 54 56 56 55 54 54 53 51 51 50 45 44 44 43 46 44 43 42 44
46 48 52 51 46 47 54 52 50 49 49 50 48 49 50 54 57 61 56 52 52 52 52 52 54 56 57 57 54 53 55 54 55 53 53 48 45 42 44 46 47 45 43
48 51 53 48 51 55 49 50 46 49 50 49 49 49 49 51 57 59 60 57 54 48 43 43 45 48 51 52 54 52 50 54 56 55 56 54 50 48 44 47 46 48 44
53 52 52 58 57 49 47 49 49 48 45 42 44 49 53 52 49 46 52 49 47 49 43 40 35 35 40 42 41 42 42 43 49 54 57 57 54 49 51 48 49 48 45
50 51 50 50 46 49 48 49 46 43 41 43 46 46 44 47 47 44 40 41 48 49 46 38 28 30 33 37 37 37 38 38 37 42 51 56 52 53 54 49 50 53 47
46 45 42 45 53 44 45 39 40 41 42 48 43 37 39 38 38 38 30 28 28 30 34 31 28 29 28 30 33 30 30 31 29 33 37 49 51 52 47 45 50 55 55
45 36 41 43 39 47 44 41 35 39 43 41 36 31 32 33 33 33 34 36 40 39 37 35 35 30 28 26 27 28 26 25 25 24 30 39 51 49 51 49 55 54 57
46 46 45 48 42 45 31 30 34 38 40 34 31 28 30 35 36 35 35 34 36 40 46 44 40 37 32 32 29 28 30 29 27 24 24 29 39 53 50 46 51 63 63
44 43 39 41 37 34 31 31 35 39 38 32 32 34 35 36 37 38 40 41 41 41 45 45 43 44 44 42 33 31 33 33 34 28 26 30 36 39 48 48 42 44 64
43 41 44 47 36 30 29 33 37 41 34 33 34 36 38 41 43 45 45 45 44 44 45 46 42 42 44 44 43 39 34 35 34 36 30 25 33 38 37 51 47 48 43
42 42 40 30 24 26 30 34 37 35 35 36 36 39 43 45 45 45 44 43 42 41 41 43 43 41 42 42 39 36 38 42 39 38 39 33 18 26 37 34 46 51 51
38 34 25 29 23 28 33 35 36 37 38 37 40 44 46 46 47 47 44 41 39 37 36 38 38 38 39 39 39 36 34 34 39 40 40 40 31 15 27 27 30 45 53
34 26 30 23 27 30 31 35 37 38 38 39 42 44 45 47 46 42 40 37 35 33 33 34 33 32 34 36 35 35 34 34 34 35 36 37 36 29 18 24 27 27 25
31 33 23 25 27 28 34 37 38 37 38 41 43 44 45 41 37 36 35 34 32 31 31 32 29 30 30 30 31 31 31 30 32 33 38 37 34 35 34 26 23 25 24
28 20 26 25 26 31 36 37 36 36 38 42 44 43 38 36 36 36 33 32 30 27 27 28 28 28 29 30 29 29 29 30 30 28 33 35 35 34 36 37 34 32 30
30 28 27 27 29 34 35 35 34 36 39 42 42 36 34 34 32 31 29 27 24 21 22 23 24 24 24 27 28 26 28 29 29 25 28 32 33 35 36 38 39 37 38
29 26 26 29 31 32 33 33 35 35 39 41 36 30 31 30 29 27 26 24 22 19 22 21 21 20 20 21 21 23 23 25 26 23 26 30 30 34 36 38 38 39 39
25 25 28 28 29 31 30 32 34 36 39 40 30 27 28 28 28 26 24 21 19 17 17 18 19 19 19 18 17 17 19 20 21 21 23 28 25 33 36 38 38 38 38

GFSMA_700_spd_021.txt.gz
Wind_Speed
12 14 16 19 23 25 27 28 28 31 36 37 35 34 35 35 33 32 31 32 32 32 32 33 34 33 34 35 34 33 34 34 34 34 36 34 32 31 30 28 27 26 27
14 16 19 24 26 28 30 33 34 35 38 40 40 40 40 41 41 40 38 38 38 37 37 37 37 38 38 38 40 40 38 37 38 37 36 36 37 36 34 33 31 30 29
18 20 23 25 30 35 34 37 37 44 43 44 46 46 45 44 46 46 46 44 43 43 42 41 41 41 42 42 41 41 42 43 39 41 38 38 38 39 38 36 35 34 34
22 25 29 31 33 39 36 38 39 45 47 49 50 51 51 51 51 49 49 48 46 44 43 43 42 42 43 44 45 45 45 44 46 44 43 42 39 38 40 40 39 38 37
25 30 34 31 32 36 40 44 46 49 51 53 55 56 55 52 48 47 48 48 48 48 49 48 46 45 45 46 47 48 49 49 48 47 47 45 45 42 40 41 43 41 41
27 30 32 35 37 41 43 46 49 50 53 56 56 54 54 52 51 52 51 50 50 50 51 52 53 52 49 48 50 51 52 53 54 52 48 47 47 46 44 43 44 44 43
28 32 35 37 40 42 44 46 45 48 52 55 57 58 58 56 56 56 55 55 55 55 55 55 55 53 53 52 52 53 54 56 56 57 56 51 48 46 47 45 42 44 44
35 37 41 44 46 48 49 52 54 56 56 56 57 57 57 56 57 54 53 52 52 50 50 51 52 52 52 52 52 53 54 55 57 57 59 57 53 51 48 49 46 43 45
41 42 45 46 48 50 51 53 54 53 53 53 51 51 51 50 50 45 41 40 42 43 45 49 52 53 54 54 53 54 54 54 55 56 56 57 56 54 52 50 51 49 44
43 45 46 47 48 49 50 50 51 50 49 49 46 43 39 41 42 45 44 41 38 38 42 44 45 46 48 50 54 55 53 54 55 55 56 57 57 56 54 54 52 51 51
43 45 45 45 46 47 48 47 46 45 45 45 44 42 39 40 41 44 47 44 42 42 44 45 45 40 38 38 39 45 48 46 49 52 55 56 57 57 56 55 55 53 53
43 45 46 47 46 45 45 45 44 44 43 42 40 38 36 38 40 43 43 44 44 39 38 39 38 35 34 33 34 34 34 38 41 41 45 51 56 57 58 57 57 57 55
44 44 45 45 44 44 41 43 46 45 46 42 35 33 35 36 38 39 37 38 40 37 37 36 37 36 34 36 34 33 32 34 35 34 35 40 47 54 58 60 58 58 59
45 45 44 44 43 42 43 43 45 39 37 37 36 34 33 38 36 35 38 41 43 43 42 40 37 36 33 32 38 34 34 31 34 34 33 32 35 40 48 56 59 58 59
44 44 44 44 42 39 37 36 32 28 30 28 30 34 36 35 36 37 37 39 41 46 47 42 43 41 40 37 35 35 40 38 36 36 34 32 30 31 34 41 49 55 58
44 44 44 42 39 36 33 30 26 28 28 30 32 37 37 37 36 35 36 38 41 45 52 46 45 43 41 41 38 37 37 38 41 39 38 35 32 29 29 30 38 45 50
45 44 43 40 36 34 31 26 26 28 29 33 37 39 38 37 36 36 38 41 44 45 49 46 45 43 40 41 40 37 35 37 38 42 39 36 34 31 28 27 26 33 40
45 44 41 37 34 31 26 26 27 28 31 35 38 38 38 37 37 39 42 44 46 44 44 42 38 37 37 35 37 36 34 34 37 37 41 40 38 36 31 28 26 24 30
45 43 39 35 31 28 27 29 26 30 32 36 37 38 37 38 38 41 44 44 41 38 39 40 39 36 35 33 33 32 32 31 34 34 35 38 42 37 36 30 26 25 23
45 42 37 33 30 26 26 28 29 31 34 34 35 35 36 37 40 43 41 36 36 38 37 37 35 33 30 29 28 26 26 26 27 31 32 34 36 38 39 36 28 25 22
42 40 36 32 28 25 26 27 29 30 31 33 32 33 35 37 40 38 34 34 36 36 34 33 32 30 27 24 25 24 22 20 21 25 28 31 32 34 37 40 33 25 23
40 38 35 31 28 26 24 26 28 29 30 30 32 33 35 37 38 33 31 33 34 33 31 30 29 25 23 22 22 21 19 23 21 22 24 28 31 33 32 34 32 27 24
38 36 33 30 27 25 24 25 26 28 28 29 32 34 35 36 36 32 31 32 30 28 28 27 27 26 26 22 20 17 19 19 22 22 24 27 28 28 29 28 26 27 24
36 33 30 27 25 24 24 24 25 26 26 30 32 34 34 36 34 31 31 29 27 26 26 24 22 21 21 21 20 15 17 26 23 25 24 25 24 23 24 25 23 26 31
33 30 27 25 24 24 22 24 24 24 26 29 31 32 34 35 32 29 27 27 28 26 25 23 21 19 18 16 17 16 15 14 24 28 27 23 20 22 23 24 26 25 32
31 29 26 24 24 22 22 23 24 25 27 28 29 30 32 32 28 25 25 26 27 26 24 19 14 13 12 11 12 14 15 15 12 13 14 17 18 19 20 22 26 27 25

GFSMA_700_spd_024.txt.gz
Wind_Speed
13 14 14 15 18 20 22 27 30 35 32 31 34 36 37 36 34 34 35 35 33 34 33 33 34 36 37 35 33 33 35 35 34 34 34 32 31 31 32 31 31 29 27
20 15 18 21 23 28 31 31 34 33 36 37 40 43 43 44 44 42 42 43 43 40 37 37 37 37 39 41 41 40 38 37 37 37 37 36 34 33 32 34 34 33 31
13 16 19 23 28 32 31 33 34 37 41 43 45 47 47 48 48 49 47 46 47 47 41 41 41 41 40 41 43 44 43 42 40 39 40 39 38 36 34 34 34 35 35
14 17 24 29 32 33 31 36 39 41 45 47 48 49 48 48 48 49 49 47 45 44 48 49 44 44 44 44 43 45 47 47 46 45 43 43 42 40 39 37 36 37 37
21 25 27 30 33 37 39 41 43 46 45 48 48 47 48 48 47 47 48 50 49 48 48 52 49 47 50 48 46 47 48 49 51 51 50 47 45 45 43 41 39 37 39
23 27 31 35 37 38 40 41 43 44 45 50 50 50 52 53 54 51 50 51 51 56 55 55 56 53 56 52 51 52 52 52 52 54 55 54 50 47 46 44 43 41 40
25 29 33 35 36 40 41 44 45 47 48 50 50 51 51 51 52 51 52 51 51 54 54 55 57 58 57 57 52 53 51 55 55 55 57 58 57 53 49 48 46 44 42
29 32 35 38 39 40 44 45 46 48 48 52 53 51 50 45 34 36 48 49 49 52 49 49 50 52 52 51 50 49 49 50 53 56 57 59 58 58 55 51 50 48 45
33 36 37 38 41 43 43 46 47 48 47 46 50 48 47 43 46 45 35 38 41 41 42 43 46 48 50 48 48 49 49 46 50 53 57 58 59 58 58 55 53 52 50
36 38 39 40 41 42 44 45 46 46 47 44 45 43 44 44 42 40 29 29 32 37 40 42 44 44 47 48 50 50 52 49 48 49 54 57 58 58 58 57 55 54 52
36 38 39 41 43 43 44 44 44 45 42 43 42 42 40 35 28 24 30 29 31 28 29 36 42 42 43 42 40 43 47 48 44 41 45 53 57 57 58 57 56 54 55
39 40 42 41 41 41 43 42 41 37 41 41 41 36 29 26 25 26 28 29 31 34 28 29 30 31 37 37 38 39 38 37 36 37 34 31 46 53 56 56 57 55 54
39 39 40 40 40 41 40 41 39 38 37 36 33 31 28 24 24 28 27 29 31 34 34 32 29 29 30 33 35 37 40 37 35 34 36 34 33 38 47 53 53 56 55
41 40 39 39 39 40 39 38 36 35 31 31 29 27 26 25 28 26 26 29 36 38 39 36 33 32 33 32 36 37 39 40 38 37 37 34 33 32 34 41 47 50 53
42 42 42 41 41 41 38 35 32 29 27 29 30 30 31 31 29 28 28 28 32 40 45 40 38 34 36 38 41 41 40 38 41 40 40 41 37 33 31 32 37 42 47
42 41 41 42 41 39 36 34 31 26 25 29 28 31 33 30 31 31 28 30 32 35 45 40 38 35 35 37 38 39 39 38 38 40 40 42 42 38 33 31 32 34 39
42 42 42 41 40 38 35 31 27 26 29 29 30 33 36 38 36 35 34 34 33 34 39 45 39 36 37 39 39 38 38 36 33 35 39 41 41 42 37 34 32 31 31
43 43 43 42 40 37 31 25 29 32 31 28 32 34 38 39 39 37 38 40 42 42 44 42 39 40 39 38 38 38 36 34 29 24 29 38 40 41 40 35 33 30 27
43 43 42 41 40 35 29 25 30 32 31 32 33 36 37 37 36 36 38 41 44 41 38 39 39 38 37 35 33 32 28 26 27 26 34 39 38 38 41 39 34 30 27
43 42 41 41 38 32 28 26 26 29 30 31 32 33 34 34 34 37 38 40 39 36 36 37 37 36 32 28 25 24 23 21 19 18 23 29 32 35 35 39 37 32 28
41 41 41 39 35 31 28 27 26 27 28 29 31 31 32 33 34 36 37 36 33 33 35 35 34 32 28 23 23 23 24 22 20 22 22 25 23 21 24 33 37 35 30
41 40 38 36 31 30 27 24 23 24 26 28 29 29 32 34 34 34 34 31 30 31 30 31 31 31 28 23 24 23 20 20 20 15 15 21 19 23 19 24 26 31 31
39 37 35 32 30 29 26 24 23 23 25 26 27 30 31 32 33 33 32 28 26 26 29 29 30 26 25 21 22 24 20 17 18 19 20 21 23 23 23 22 28 25 26
37 35 33 29 28 26 25 23 22 23 24 25 28 30 30 30 31 32 29 25 25 27 27 26 27 26 24 20 19 20 19 18 19 22 23 25 21 21 22 27 25 22 24
35 33 32 28 25 25 23 22 22 22 22 25 27 29 28 28 29 30 27 25 25 26 26 26 24 20 16 15 16 17 18 18 13 13 18 19 23 23 23 23 22 21 25
33 31 30 26 24 24 22 21 21 22 22 24 26 27 27 26 27 28 26 25 24 25 26 24 18 15 13 11 13 13 12 14 13 10 10 16 15 13 16 17 19 22 24

GFSMA_700_spd_027.txt.gz
Wind_Speed
16 18 14 14 17 21 24 28 32 32 32 33 36 37 39 39 40 41 39 38 39 34 32 33 34 35 35 35 35 35 35 34 34 33 34 35 31 28 27 26 27 26 26
24 27 27 22 15 19 26 31 32 30 34 38 41 42 43 44 43 43 44 42 41 42 40 36 35 34 35 37 39 39 39 39 37 37 37 37 36 34 31 29 28 29 29
39 27 15 17 22 25 28 32 36 39 40 43 44 45 45 45 45 45 44 44 44 42 43 45 40 38 38 40 41 41 42 42 41 41 40 39 40 38 36 33 31 30 31
26 15 22 26 26 30 35 37 39 40 42 42 44 46 47 46 47 46 44 41 42 43 43 46 46 41 43 45 45 44 44 45 46 45 45 44 41 42 41 38 36 33 32
17 20 23 26 29 33 37 38 39 42 44 45 45 48 47 47 47 48 47 44 41 42 43 42 47 46 46 49 48 48 49 50 49 50 49 49 49 44 45 45 41 39 37
17 22 24 27 30 35 38 40 41 42 44 47 49 49 46 46 46 47 44 40 36 44 43 49 51 51 51 55 53 46 52 50 54 56 53 53 53 53 47 46 47 45 42
19 22 27 30 33 35 39 41 43 43 45 46 48 49 48 45 43 37 30 36 47 42 47 51 49 47 49 52 55 55 48 46 51 52 54 55 56 57 55 50 49 50 46
22 26 28 33 37 38 39 42 44 44 43 44 45 49 50 46 40 27 36 40 33 37 34 41 48 41 45 49 49 49 48 52 47 46 48 51 55 56 57 57 53 51 52
28 31 34 35 37 39 40 42 43 44 42 44 43 44 45 43 45 40 37 35 33 39 36 37 35 39 38 43 41 42 47 48 44 42 44 45 50 54 55 56 57 53 52
32 34 36 38 38 38 39 40 39 43 43 43 43 39 39 39 36 39 30 26 29 29 30 33 29 36 38 38 32 38 43 49 50 46 46 47 46 48 53 55 55 56 53
36 36 37 39 39 39 39 41 42 41 40 41 41 37 33 27 26 28 31 27 26 24 24 28 31 34 34 32 31 32 35 43 41 40 42 42 46 49 49 51 55 55 54
35 37 37 37 38 39 41 40 41 40 40 39 34 27 25 25 24 24 24 27 29 28 26 27 29 32 32 33 34 34 40 44 40 39 39 41 39 40 46 48 52 55 54
36 37 36 36 37 37 37 39 39 31 35 30 27 27 31 28 24 25 25 29 33 33 31 29 28 31 32 35 36 38 44 46 41 39 39 41 42 39 37 41 46 54 55
37 37 37 39 40 40 40 38 37 34 26 29 33 32 31 28 26 27 29 30 38 37 35 32 31 32 33 33 38 42 44 44 42 39 41 42 40 41 37 34 40 45 47
37 38 39 40 40 39 37 39 28 28 31 28 29 31 32 36 32 34 31 35 33 39 39 37 37 31 34 37 39 41 41 39 36 36 38 40 40 40 42 37 33 39 40
37 38 39 39 40 39 38 35 33 30 28 27 29 27 38 33 33 35 40 31 33 36 42 38 37 36 40 39 36 37 39 40 38 37 34 37 40 41 43 43 38 34 37
37 39 41 42 42 42 40 34 32 28 28 27 30 36 29 33 38 38 35 34 32 33 40 46 42 42 39 40 39 39 39 39 37 36 34 33 36 40 41 42 41 37 34
40 41 42 43 43 41 41 37 32 27 25 30 32 35 35 35 38 35 36 36 38 40 43 47 45 41 39 40 39 37 35 32 33 33 30 29 29 35 37 40 39 38 35
41 41 41 42 42 40 37 36 31 27 26 29 29 35 35 36 36 35 36 37 39 41 43 45 42 39 39 36 33 31 27 28 26 24 23 23 28 30 33 36 37 37 36
41 41 41 42 41 37 36 33 29 26 19 26 32 32 32 33 33 34 35 37 39 40 41 38 37 37 34 31 27 25 26 27 26 22 23 25 25 27 31 34 33 33 36
41 40 40 40 39 37 36 30 28 26 26 28 29 29 30 32 33 34 34 34 36 37 35 33 33 32 31 29 26 24 25 27 27 22 19 24 27 27 22 15 21 30 33
40 39 38 37 34 36 31 29 27 26 26 27 28 28 29 32 34 35 35 33 33 32 30 30 31 30 29 22 25 24 24 25 24 18 20 20 24 16 24 18 16 19 27
39 38 36 35 33 37 28 28 26 26 24 25 27 27 28 30 33 32 33 32 32 28 28 29 30 29 29 29 28 25 23 24 23 21 20 20 15 14 21 24 28 31 23
38 35 35 34 33 34 28 26 26 25 24 25 26 26 28 29 33 30 30 30 29 27 27 27 28 29 26 22 19 19 22 24 21 19 17 22 22 23 23 24 25 24 21
35 34 32 33 31 31 28 26 25 24 23 23 24 26 28 28 29 29 29 28 27 25 24 27 27 24 20 16 16 17 15 18 18 12 11 15 12 18 23 25 22 17 20
34 35 32 30 31 28 29 25 24 23 22 22 22 25 29 25 26 27 27 27 26 24 24 25 25 18 15 14 14 15 13 16 18 11 8 11 12 14 13 7 11 13 17

GFSMA_700_spd_030.txt.gz
Wind_Speed
19 17 16 21 25 22 21 18 24 27 29 31 34 37 37 38 38 38 39 40 38 37 37 35 34 34 35 34 32 31 30 31 31 31 30 31 31 29 28 26 24 24 24
23 16 17 21 20 23 20 21 23 28 31 34 36 38 40 41 42 41 41 41 40 42 41 40 39 36 37 37 38 38 36 34 34 33 33 32 33 33 31 31 28 26 26
25 30 35 30 20 25 21 25 28 31 34 37 38 40 41 43 43 43 43 42 39 41 43 44 41 43 39 38 41 41 42 42 41 39 37 36 36 35 35 34 33 31 29
24 19 17 17 19 23 25 27 31 34 37 39 40 42 44 43 42 43 43 43 39 37 41 43 48 45 43 40 43 44 44 48 48 45 44 43 40 40 38 37 37 36 34
17 14 15 18 21 26 30 33 36 38 39 40 41 42 44 43 41 41 42 42 38 37 39 45 49 51 53 54 52 49 46 50 48 50 53 51 47 44 42 41 40 40 39
13 17 19 21 23 28 33 36 38 38 38 40 41 42 42 42 41 41 42 40 41 42 43 47 50 54 53 54 58 58 59 56 51 50 54 55 53 50 48 45 43 43 43
16 19 24 27 30 32 36 38 39 39 39 39 40 40 40 41 40 40 43 44 43 42 43 47 53 56 56 59 51 55 56 55 47 45 43 46 51 52 52 50 49 46 47
18 23 25 27 32 34 36 37 37 39 38 38 40 42 44 45 45 45 39 39 42 43 45 45 45 43 46 53 52 47 50 49 48 48 45 40 40 45 50 52 50 50 48
22 26 27 30 32 35 35 36 36 38 38 38 38 42 45 47 49 46 46 43 43 45 45 45 42 37 38 41 39 40 42 41 43 42 39 40 40 39 43 47 51 49 50
23 27 30 32 33 34 35 35 35 37 38 40 40 39 39 43 45 49 43 40 40 37 32 31 31 34 34 37 40 40 40 39 43 43 40 35 38 43 43 41 44 48 48
34 32 33 34 36 37 36 37 38 39 40 40 41 40 39 39 38 37 43 39 35 30 28 26 32 35 36 37 38 37 38 42 46 47 45 38 36 38 40 40 37 44 48
35 34 34 34 35 37 37 36 38 40 39 40 36 35 28 33 34 32 34 34 31 32 35 34 34 34 35 36 35 37 38 43 48 51 51 43 36 38 39 39 40 42 44
35 33 34 34 36 37 37 36 37 37 36 36 30 30 32 37 34 30 31 35 42 36 38 38 37 34 34 34 36 39 44 45 47 49 49 45 39 38 40 39 38 39 41
33 34 33 35 36 37 37 36 39 39 35 32 30 33 35 33 30 27 30 38 40 42 41 45 34 35 37 38 38 40 41 43 43 40 39 37 36 37 39 41 38 38 38
31 34 35 37 37 38 38 36 36 37 33 27 25 28 33 34 28 32 40 34 36 42 51 40 41 38 38 43 45 44 44 41 39 40 38 36 35 35 37 39 40 38 37
32 34 36 38 38 39 40 42 37 34 33 31 27 30 32 28 30 36 35 38 41 44 47 43 41 43 44 46 44 42 39 38 39 39 39 37 37 35 37 38 39 38 36
33 35 37 38 39 40 40 41 36 33 33 30 28 32 25 28 36 37 40 41 41 40 43 44 43 45 46 45 42 38 37 39 38 37 36 35 35 36 34 37 38 39 36
34 36 39 39 39 40 40 39 39 36 32 28 25 24 30 38 42 40 39 37 36 37 41 46 45 44 44 43 38 37 35 33 33 33 32 32 30 31 31 32 33 34 35
34 38 39 39 39 40 39 36 36 34 30 28 26 26 30 34 37 34 34 34 36 38 40 43 44 42 41 37 35 34 32 31 28 28 27 27 25 25 24 27 32 29 29
36 36 37 38 38 39 36 32 32 32 30 28 28 30 31 31 31 32 32 34 36 38 39 39 39 37 35 32 32 32 31 25 26 26 27 28 25 25 25 24 25 28 32
33 37 37 37 35 36 33 31 32 31 29 28 28 30 29 31 31 31 32 34 34 35 35 36 35 33 32 32 30 28 27 26 23 24 26 23 22 21 28 27 25 24 19
32 37 37 36 35 34 31 28 30 28 27 28 29 28 29 29 31 33 34 34 33 34 34 34 32 32 30 30 32 31 31 32 30 20 25 22 22 21 23 16 16 15 20
33 35 36 34 36 34 31 28 28 27 27 29 29 27 27 27 29 30 31 31 31 31 33 33 32 31 32 31 31 27 24 23 22 23 25 25 21 21 15 12 16 20 24
34 34 34 32 33 34 30 28 27 28 29 29 27 27 26 27 28 30 30 29 29 29 29 28 28 29 29 27 24 21 19 19 15 16 16 19 10 19 23 19 18 20 27
34 33 33 32 29 33 29 28 28 28 29 27 26 26 25 26 27 27 28 28 28 27 27 27 26 27 27 21 19 18 15 15 16 15 14 13 10 16 14 21 24 24 24
32 33 33 29 29 32 31 28 27 28 28 26 24 23 24 24 25 26 28 28 27 27 27 24 22 23 21 17 15 14 14 14 17 19 13 16 14 13 11 12 7 9 11

GFSMA_700_spd_033.txt.gz
Wind_Speed
17 16 19 19 18 19 22 21 16 22 22 24 27 28 29 31 32 34 35 35 35 35 36 36 35 32 31 32 31 30 31 31 31 31 32 30 30 31 30 27 25 24 23
20 19 21 22 28 27 19 21 20 23 23 27 30 31 33 33 33 34 36 36 37 36 38 39 41 41 37 37 35 34 34 35 35 35 35 35 34 33 34 32 31 28 27
19 19 20 24 26 20 17 21 23 25 28 31 34 35 36 36 35 36 37 38 39 38 39 41 43 44 44 41 39 40 39 40 38 38 40 40 39 37 36 37 35 33 31
28 31 24 18 16 19 20 23 26 30 34 37 37 37 37 36 35 35 35 35 38 39 40 42 45 48 50 52 52 46 46 47 47 47 45 44 45 42 40 39 40 38 35
23 22 26 21 21 22 25 27 31 35 37 37 36 34 34 34 33 34 34 37 39 41 41 44 48 52 54 56 57 57 58 56 55 53 52 52 49 44 43 43 43 43 42
20 18 20 18 21 25 28 29 31 35 35 34 33 33 34 34 34 37 38 40 42 43 44 46 50 53 55 55 57 57 57 59 57 52 56 56 54 53 48 44 46 47 47
18 18 19 20 24 25 27 31 34 35 34 33 33 34 34 34 37 39 39 40 41 42 42 45 49 52 55 57 59 59 59 60 60 57 51 47 44 46 51 54 47 48 51
18 18 24 24 24 26 30 32 35 35 34 34 35 36 36 36 37 40 41 40 42 41 42 44 46 50 52 54 56 58 57 51 43 38 37 38 38 33 34 41 48 47 48
21 24 27 25 31 28 30 32 34 34 35 35 34 36 40 42 44 43 42 43 38 35 37 38 41 44 45 46 47 47 44 39 38 39 37 34 36 35 32 35 38 42 46
27 28 27 30 32 32 33 33 32 34 36 36 35 35 36 40 43 46 43 42 38 33 31 31 31 31 32 35 40 42 43 42 43 42 43 40 38 39 36 32 36 38 40
27 31 32 33 35 35 35 34 34 36 37 37 38 39 39 39 41 41 46 43 35 29 25 27 35 36 33 35 37 41 44 45 44 43 44 46 44 41 40 36 34 37 37
33 37 35 32 35 35 35 34 35 37 37 37 38 38 37 37 39 39 42 37 35 32 30 34 37 35 38 41 37 35 37 40 43 46 46 45 45 42 39 39 37 36 38
38 40 37 31 35 34 34 36 37 37 35 36 36 36 36 34 36 37 39 36 36 34 39 37 32 40 41 41 39 38 37 38 39 40 42 43 41 40 37 35 36 37 37
41 52 40 32 34 33 34 35 36 36 37 37 35 34 34 31 32 34 37 34 31 38 43 39 38 42 43 42 39 38 39 40 41 41 42 41 38 37 37 36 35 36 37
45 50 32 35 37 35 35 35 35 34 34 36 34 33 34 33 33 32 33 29 34 42 48 45 47 41 40 41 41 41 41 41 42 42 39 38 39 38 38 36 37 37 35
41 40 37 36 34 34 36 36 38 36 34 33 33 32 31 32 34 30 26 30 39 44 47 45 41 40 41 41 41 41 42 41 39 36 36 39 39 39 37 36 37 38 37
36 33 34 35 34 34 35 35 37 34 32 33 32 31 28 28 28 29 34 36 45 42 42 42 39 40 42 42 40 39 39 36 34 35 36 35 35 35 36 35 35 36 37
38 34 35 34 32 33 37 36 35 34 32 33 32 30 27 26 25 30 35 37 37 36 37 41 40 41 41 39 38 36 34 33 33 34 34 34 31 29 27 29 31 33 34
33 32 34 32 33 35 38 37 35 35 33 32 30 29 28 29 29 29 30 30 32 33 35 40 41 38 38 36 34 32 32 32 32 34 33 31 30 30 28 27 25 26 29
27 34 31 31 35 35 36 32 32 32 32 31 30 29 29 30 30 30 29 29 31 33 35 35 35 34 33 31 31 32 33 31 32 28 29 27 27 30 29 27 25 27 25
31 32 32 33 30 33 35 30 30 31 31 30 29 29 30 30 30 29 27 29 32 33 32 32 32 32 30 29 29 30 33 32 24 26 28 25 28 27 24 25 25 25 23
30 38 26 29 27 33 33 29 28 29 30 29 28 28 28 28 28 27 28 30 31 32 32 33 33 32 28 27 29 31 29 26 23 17 20 19 25 24 23 23 19 13 21
32 25 26 29 31 33 33 28 27 29 30 29 29 28 27 28 25 25 28 28 28 29 31 31 31 30 29 28 30 28 23 23 21 12 19 19 17 19 20 24 18 13 10
28 22 27 31 33 31 32 29 28 29 30 29 28 28 28 27 24 25 27 26 26 27 28 29 30 29 28 27 28 24 21 21 17 10 17 20 14 12 14 18 21 19 17
23 26 30 31 30 30 31 29 29 29 29 29 27 26 27 26 22 24 24 24 25 25 25 26 27 27 26 26 23 21 20 19 16 9 11 19 16 16 13 13 13 21 23
25 29 31 31 29 29 30 29 30 29 29 27 26 27 26 23 22 23 22 23 23 24 24 24 23 24 23 23 18 18 18 16 15 13 16 23 22 21 19 12 12 10 18